Location: *
(50.8160°S, 176.0219°W)
Time: 00:30:25
(UTC+00:00)

Cosmos 44 Rocket - Pass Details

Date: 19 May 2026
Orbit: 631 x 746 km, 65.1° (Epoch: 9 June)

Event Time Altitude Azimuth Distance (km) Brightness Sun altitude
Rises 18:23:24 0° 318° (NW) 2,995 6.4 -8.8°
Reaches altitude 10° 18:25:44 10° 317° (NW) 2,074 5.5 -8.5°
Maximum altitude 18:30:25 82° 231° (SW) 666 3.1 -7.8°
Drops below altitude 10° 18:35:05 10° 141° (SE) 2,056 6.0 -7.1°
Sets 18:37:23 0° 139° (SE) 2,967 6.8 -6.8°
